Wind_Speed
13 13 12 20 17 17 18 6 11 7 11 24 23 13 13 12 10 15 14 13 16 17 19 24 26 24 27 29 23 18 15 12 19 16 13 14 14 11 11 13 15 12 9 11
8 2 17 12 14 15 15 6 7 5 5 25 17 12 11 13 14 12 17 15 13 9 14 20 25 26 29 30 31 28 20 10 15 12 14 16 14 15 15 13 19 15 10 11
9 10 14 9 14 14 6 6 6 10 6 16 18 5 7 6 10 13 14 13 14 14 13 15 22 27 29 29 33 27 26 17 19 19 15 17 15 16 12 9 12 20 12 15
9 13 10 10 10 5 4 7 4 4 7 10 6 3 4 3 7 14 15 15 15 17 17 17 20 23 29 30 33 29 30 26 21 23 19 20 18 17 16 14 12 17 16 16
13 10 8 8 7 3 6 9 5 6 6 1 6 6 4 5 8 10 15 16 15 17 18 19 24 30 28 30 31 31 30 32 28 25 25 22 20 19 21 18 15 13 24 21
13 13 6 2 5 6 7 7 8 6 3 4 4 5 9 9 18 5 8 13 14 17 18 18 28 30 29 31 32 33 34 35 34 29 28 26 20 21 21 14 10 14 2 8
16 13 13 3 6 9 7 3 4 5 3 5 9 6 7 5 3 2 5 1 12 15 15 15 17 23 27 32 34 33 37 39 38 35 32 28 28 25 20 15 15 16 7 29
5 9 9 8 9 6 7 4 5 3 5 4 7 2 5 12 17 15 8 10 10 15 15 18 18 26 31 34 38 37 41 40 42 40 37 33 31 28 27 21 15 16 14 9
3 7 4 7 4 2 9 5 7 2 3 9 3 3 4 11 18 18 15 19 21 8 20 20 22 30 33 34 40 40 38 42 41 42 41 36 29 27 26 25 25 21 20 19
4 4 8 12 7 6 6 7 6 5 2 5 3 2 5 8 16 18 14 19 29 9 21 18 14 27 32 36 37 39 40 42 43 39 38 37 34 30 26 23 21 19 19 12
3 3 4 3 3 6 6 6 4 1 2 4 5 0 7 11 16 19 15 24 24 30 17 8 5 13 26 33 33 32 30 30 29 31 31 28 26 24 25 25 24 25 26 26
3 2 4 3 5 7 5 9 3 5 9 4 5 2 7 7 12 25 29 32 25 30 11 8 8 17 21 18 30 26 27 27 30 31 25 25 24 24 24 25 25 26 26 22
5 3 5 5 7 10 5 7 4 4 5 1 5 4 6 7 8 12 3 12 8 13 10 8 9 9 17 23 24 26 25 23 24 24 27 26 22 23 24 24 21 20 25 23
5 3 3 3 6 4 8 8 8 5 5 1 4 6 6 11 13 11 14 17 3 3 9 8 7 7 15 21 21 19 16 13 13 13 18 25 26 22 24 25 23 24 24 21
4 4 3 9 11 13 6 5 8 6 5 3 9 15 17 21 20 16 12 6 5 12 11 10 8 7 15 21 26 23 21 18 18 18 18 18 14 9 8 5 1 3 3 3
3 4 3 7 10 10 5 9 3 6 4 3 7 9 16 15 2 13 17 7 7 10 10 11 10 9 15 20 22 22 20 18 16 19 17 15 13 9 9 7 5 5 6 8
4 5 2 7 9 6 3 8 3 4 6 6 6 7 22 16 15 18 11 11 11 13 14 11 10 12 18 20 20 21 21 19 19 17 15 14 12 12 12 10 10 8 8 7
6 4 1 5 4 2 8 5 4 4 1 6 3 23 26 28 26 19 10 15 11 17 12 9 13 19 22 24 23 21 18 17 15 13 11 10 10 9 9 8 10 11 10 10
6 3 2 3 2 5 7 6 8 5 6 5 5 6 23 18 12 8 19 17 15 16 13 21 26 27 29 26 23 21 17 14 13 10 8 7 7 7 8 9 11 11 12 12
10 7 4 4 3 5 7 5 6 5 4 6 6 6 18 17 13 8 21 22 17 21 27 27 27 28 25 19 18 17 14 11 9 7 6 6 6 8 7 8 8 11 12 13
7 4 5 5 5 6 5 2 6 4 6 3 7 10 11 9 14 17 19 16 21 25 26 28 26 23 20 19 17 16 12 9 5 5 5 5 6 7 7 9 10 9 10 10
6 4 4 4 6 13 2 6 1 8 4 5 6 7 8 15 23 21 17 16 17 20 27 28 25 24 19 16 15 14 10 5 4 4 5 5 5 5 5 10 12 14 15 13
5 6 5 6 6 6 2 5 9 4 5 5 10 14 19 21 21 19 18 18 15 23 24 26 27 21 14 12 9 10 7 3 4 4 5 5 6 7 5 9 13 12 13 18
11 13 4 7 10 6 9 8 23 8 7 7 9 17 22 23 22 21 20 17 14 20 23 26 25 21 16 12 10 11 6 4 5 5 8 12 12 11 14 18 18 9 11 14
4 9 8 5 17 14 13 7 8 14 6 6 6 14 22 25 22 22 18 17 16 24 23 25 22 22 17 13 12 9 7 5 5 9 12 14 16 17 17 16 15 11 11 11
3 7 5 7 9 3 10 17 3 12 8 5 4 5 22 22 21 21 18 17 23 25 29 27 25 21 16 14 12 8 5 4 8 11 10 10 12 11 13 13 13 10 6 8
Wind_Direction
276 125 241 237 218 252 270 210 152 159 149 139 206 148 146 137 128 149 156 163 178 190 181 172 173 175 182 195 192 188 183 158 178 189 187 213 241 234 235 223 220 218 202 204
297 134 236 251 281 281 277 118 144 140 167 130 147 142 151 151 151 162 160 169 180 174 154 169 146 162 179 193 202 213 203 185 192 204 211 225 229 236 240 246 230 215 198 204
262 223 211 244 274 285 316 88 153 166 190 125 114 115 155 151 151 167 167 173 175 173 167 172 171 171 182 196 206 212 206 204 215 220 225 227 224 241 244 244 221 210 202 206
268 264 219 254 268 346 47 337 359 316 133 152 153 180 332 218 190 174 175 178 185 181 185 181 187 192 185 194 211 212 209 210 219 212 217 225 229 231 235 242 224 201 211 213
259 282 279 243 266 3 268 304 302 283 276 160 84 82 281 336 243 198 181 185 185 180 181 183 187 194 188 190 199 208 210 211 215 212 221 223 226 234 241 238 238 246 219 207
265 278 276 307 311 306 258 272 292 274 223 70 199 108 212 228 205 191 182 181 166 162 175 181 184 190 195 192 193 199 205 211 213 213 217 223 227 240 246 236 241 248 56 80
268 244 256 186 279 282 260 280 302 351 0 185 179 121 224 207 99 60 351 168 175 176 176 176 176 181 189 187 190 192 201 207 214 213 217 220 225 232 250 253 255 266 204 195
273 302 217 199 214 243 294 191 170 209 240 157 143 52 357 58 55 48 19 347 352 189 179 178 187 183 186 186 189 192 196 205 213 213 216 219 222 227 237 244 245 254 263 239
181 306 279 162 251 22 298 344 256 264 262 112 61 25 252 38 38 40 9 334 293 291 182 184 189 192 189 187 190 195 193 200 203 210 215 216 220 224 231 241 242 256 266 266
220 181 240 269 194 271 197 242 342 343 29 107 90 186 200 61 61 30 25 318 295 320 296 192 193 196 192 196 194 196 201 197 202 205 212 219 223 228 235 236 237 240 246 261
39 30 283 38 36 311 343 314 326 126 117 157 150 280 166 154 145 148 143 236 249 257 267 108 82 173 195 196 196 195 195 193 193 197 208 215 225 235 237 241 245 249 253 256
186 204 297 190 84 22 302 296 299 119 298 40 116 48 121 150 170 172 184 208 235 255 91 93 75 69 73 155 186 172 173 184 192 200 206 220 227 230 235 242 247 252 251 253
345 333 1 14 8 343 307 293 8 353 80 40 108 210 181 179 179 235 266 277 311 88 86 81 74 75 80 88 132 147 158 173 189 198 210 217 218 225 234 237 240 254 250 255
72 268 209 186 205 261 290 323 354 31 82 220 162 150 184 156 173 193 228 255 301 255 115 101 95 87 95 103 107 121 136 148 193 207 226 230 233 237 245 244 258 257 255 256
154 239 298 296 178 229 238 306 321 347 324 86 170 152 178 179 176 186 221 218 336 317 131 126 107 105 103 90 83 88 82 84 85 81 72 72 97 93 91 114 55 314 325 231
210 277 305 296 291 284 255 279 238 265 270 293 164 160 182 180 196 171 213 216 260 293 143 129 132 113 94 88 89 87 85 80 80 73 65 61 62 55 44 23 355 330 310 283
179 169 208 255 267 298 23 284 2 17 44 73 51 156 166 178 189 206 200 203 220 236 124 138 129 114 103 101 97 88 91 91 82 74 61 54 48 43 37 27 12 352 343 329
323 353 200 242 326 310 250 313 9 320 20 6 28 148 171 177 192 201 198 188 211 129 130 112 112 106 101 105 102 97 92 85 78 67 56 43 35 28 21 20 16 16 7 346
293 306 302 133 260 256 301 322 50 88 347 8 45 47 172 186 189 199 193 165 132 119 107 105 107 107 105 106 107 104 96 90 80 68 55 38 23 12 359 355 357 358 346 339
306 254 169 294 216 240 247 307 121 105 338 318 342 177 142 121 107 124 114 116 116 107 114 111 108 113 115 118 116 110 103 89 69 50 38 27 9 354 358 5 356 333 323 320
279 316 238 246 237 260 191 349 341 109 215 45 36 124 139 134 146 141 125 120 119 125 122 118 117 117 127 134 128 114 100 76 51 20 17 19 12 10 46 355 351 352 350 344
235 225 232 260 281 288 312 338 84 230 170 117 115 94 117 117 127 129 125 119 113 111 108 109 104 103 102 108 111 107 92 68 20 29 16 7 1 7 347 356 354 346 347 5
272 221 222 188 218 201 342 321 272 110 160 110 113 123 118 122 125 122 117 118 118 119 117 117 117 115 113 111 106 108 104 55 44 17 4 344 322 319 328 335 345 57 39 33
340 20 340 24 352 286 194 7 335 114 87 112 119 136 129 132 132 127 126 128 127 124 126 129 131 132 134 131 119 117 96 72 29 31 8 24 44 45 38 45 35 26 46 35
316 324 324 336 12 355 81 147 209 296 116 66 79 130 144 142 143 139 138 137 136 134 141 145 140 141 135 128 114 103 98 96 72 33 64 47 45 43 37 33 29 48 51 29
301 309 331 320 354 321 303 331 243 222 133 124 111 102 150 149 148 142 141 136 127 118 119 120 131 132 133 136 126 109 103 78 95 62 51 73 48 41 34 21 17 49 30 353
Height
725 763 786 759 741 729 727 731 740 725 717 763 772 761 759 750 752 763 769 772 776 776 777 782 787 791 797 802 806 809 812 816 818 821 824 826 827 829 829 830 831 833 834 835
740 753 731 721 721 725 722 731 738 722 711 735 755 763 753 750 753 755 762 767 770 771 774 779 783 789 793 797 802 805 809 814 816 819 822 825 826 826 827 827 828 830 832 834
752 735 710 719 723 728 725 731 733 738 721 728 745 770 759 749 749 754 756 759 764 769 774 778 781 785 790 795 798 801 808 811 813 815 819 823 824 825 825 825 825 828 832 834
736 710 715 720 726 719 739 709 710 721 748 775 733 809 783 760 759 756 756 757 762 767 770 774 778 782 785 790 795 799 805 808 810 813 816 819 821 821 821 822 825 827 830 831
741 725 721 727 719 704 728 704 713 717 735 741 770 803 782 769 771 760 755 753 751 757 763 768 774 778 782 786 790 795 801 804 807 810 813 816 818 818 817 820 823 825 821 822
725 696 704 703 698 699 696 711 717 721 739 791 778 789 798 777 755 756 748 747 746 751 756 761 768 775 779 783 787 792 796 800 803 806 809 812 814 814 815 818 820 819 824 817
727 717 698 690 714 703 709 733 784 786 778 795 764 777 774 751 755 752 753 755 744 746 751 757 761 767 774 778 782 787 791 794 797 800 803 805 807 810 811 815 817 818 825 818
752 758 712 692 709 719 716 723 774 785 793 781 762 780 796 763 754 754 752 760 756 742 743 749 754 757 761 768 774 778 781 786 790 793 796 798 802 804 806 811 814 813 817 818
747 740 688 686 684 695 718 742 709 742 731 782 787 779 768 762 761 763 758 754 742 750 733 737 743 749 754 759 763 767 771 776 781 784 790 794 797 800 802 804 811 810 811 815
710 745 702 692 683 688 703 699 747 752 772 800 790 804 799 788 785 783 777 758 746 756 763 730 736 745 749 753 756 761 765 768 773 779 784 789 792 796 799 802 805 807 809 810
694 721 720 700 713 722 722 732 723 729 745 781 801 799 781 783 786 790 791 769 771 772 756 735 737 735 744 749 754 757 763 768 774 778 782 787 790 793 796 799 801 803 806 808
689 717 746 720 695 697 705 716 717 767 764 757 776 802 769 773 776 778 776 779 773 769 730 736 738 740 741 743 750 755 761 767 772 776 780 784 787 789 792 794 795 797 799 802
699 731 766 740 728 710 718 710 702 714 733 756 782 797 765 768 774 764 758 761 748 732 739 742 742 745 747 749 751 756 761 767 771 775 778 780 781 784 786 789 790 790 793 794
691 718 738 770 750 723 731 714 708 717 764 751 757 783 775 769 761 754 748 751 750 742 744 747 749 750 753 755 757 761 765 770 772 775 776 776 778 782 785 786 787 786 787 788
698 733 716 721 715 712 715 711 711 724 721 746 753 760 761 746 736 742 742 742 746 754 744 748 752 757 757 758 761 765 768 771 773 775 776 777 780 781 783 785 785 784 785 785
694 733 715 732 713 711 717 711 704 708 708 709 722 748 733 735 735 734 732 738 748 758 745 751 755 758 758 762 766 769 771 773 773 775 778 780 780 780 781 782 783 783 783 784
706 722 734 754 722 716 737 717 706 705 704 710 736 721 727 743 737 729 734 739 748 754 746 753 755 757 762 766 769 771 773 775 776 778 781 782 781 781 782 783 783 783 783 783
709 717 725 748 729 764 719 685 686 698 693 694 694 723 721 722 721 726 727 733 750 737 745 752 755 761 765 769 771 774 776 779 780 782 784 785 785 785 785 785 784 783 782 782
692 713 737 753 748 727 710 695 703 712 716 690 694 690 712 722 731 724 721 729 734 738 746 753 760 763 767 772 775 777 780 782 784 786 787 788 788 788 788 787 785 784 783 782
695 697 730 739 750 762 719 685 675 685 738 688 687 689 702 706 739 738 719 724 734 742 749 754 760 765 769 775 777 780 783 785 787 789 789 789 789 789 788 788 786 785 784 782
725 723 734 737 741 722 685 675 674 733 733 680 682 688 695 711 708 715 718 728 735 743 749 755 761 767 773 777 779 782 785 787 788 789 789 789 788 788 788 787 786 784 783 782
729 735 737 729 732 751 670 678 707 698 674 671 674 682 691 695 703 712 720 730 738 744 751 757 764 771 775 778 780 783 786 788 789 789 789 788 788 788 787 786 785 784 783 782
727 712 725 715 715 682 670 682 673 668 674 669 674 677 684 696 707 714 724 733 741 747 755 761 766 772 777 779 782 784 787 788 789 789 788 787 787 787 786 785 785 784 783 782
709 697 711 706 694 682 665 681 686 663 667 665 665 672 681 696 703 715 721 731 740 748 755 761 767 773 777 781 783 784 786 788 788 788 788 787 786 787 786 785 784 783 783 784
720 714 713 705 700 688 690 690 699 670 662 664 665 671 679 688 699 707 719 726 733 743 753 760 767 773 777 780 782 785 786 786 787 788 788 788 788 787 787 787 786 785 785 784
718 726 733 730 712 710 701 688 678 671 662 666 666 668 678 686 696 704 715 724 732 740 750 760 768 773 777 780 782 784 785 786 787 788 789 790 790 789 789 787 786 785 785 784